CW9688 Weather Reports


time (UTC)temp
C
wind
direction
speed
KPH
gust
KPH
rain 1hr
cm
rain 24hr
cm
rain mn
cm
humidity
%
barometer
mb
20260506163805 0 1 9.7 19.3 0.08 1.40 0.28 93 1011.5
20260506162804 0 353 11.3 20.9 0.05 1.40 0.25 93 1011.5
20260506161304 0 10 11.3 25.7 0.08 1.40 0.25 94 1011.5
20260506160805 0 13 9.7 22.5 0.05 1.37 0.23 94 1011.5
20260506155306 0 344 11.3 19.3 0.08 1.40 0.23 94 1011.5
20260506154804 0 341 8.0 16.1 0.08 1.40 0.23 94 1011.5
20260506154305 0 334 11.3 19.3 0.05 1.37 0.20 94 1011.5
20260506153304 0 337 8.0 20.9 0.05 1.37 0.20 94 1011.5
20260506152804 0 338 12.9 19.3 0.05 1.37 0.20 94 1011.5
20260506152306 0 331 14.5 20.9 0.05 1.37 0.20 94 1011.5
20260506151805 0 354 8.0 14.5 0.03 1.35 0.18 95 1011.5
20260506150305 0 351 0.0 0.0 0.00 1.32 0.15 95 1011.5
20260506145806 0 330 0.0 0.0 0.00 1.35 0.15 95 1011.5
20260506145306 0 5 0.0 0.0 0.00 1.35 0.15 95 1011.5
20260506144305 0 350 0.0 0.0 0.00 1.35 0.15 95 1011.5
20260506143305 0 346 0.0 0.0 0.00 1.37 0.15 95 1011.5
20260506142805 0 331 0.0 0.0 0.00 1.37 0.15 95 1011.5
20260506141304 0 13 0.0 0.0 0.00 1.37 0.15 95 1011.5
20260506140304 0 13 0.0 0.0 0.00 1.40 0.15 95 1011.5
20260506135306 0 13 0.0 0.0 0.00 1.42 0.15 95 1011.5
20260506134304 0 13 0.0 0.0 0.00 1.42 0.15 95 1011.5
20260506133305 0 14 0.0 0.0 0.00 1.45 0.15 95 1011.5
20260506132805 0 14 0.0 0.0 0.00 1.45 0.15 95 1011.5
20260506131804 0 14 0.0 0.0 0.00 1.45 0.15 95 1011.5
20260506131305 0 14 0.0 0.0 0.00 1.47 0.15 95 1011.5
20260506130805 0 14 0.0 0.0 0.00 1.47 0.15 95 1011.5
20260506130304 0 14 0.0 0.0 0.00 1.50 0.15 95 1011.5
20260506125805 0 14 0.0 0.0 0.00 1.50 0.15 95 1011.5
20260506125306 0 14 0.0 0.0 0.00 1.50 0.15 95 1011.5
20260506124805 0 14 0.0 0.0 0.00 1.52 0.15 96 1011.5
20260506123305 0 14 0.0 0.0 0.00 1.52 0.15 95 1011.5
20260506122805 0 14 0.0 0.0 0.00 1.52 0.15 95 1011.5
20260506122306 0 14 0.0 0.0 0.00 1.55 0.15 95 1011.5
20260506121306 0 14 0.0 0.0 0.00 1.55 0.15 95 1011.5
20260506120304 0 14 0.0 0.0 0.00 1.57 0.15 95 1011.5
20260506115805 0 14 0.0 0.0 0.00 1.57 0.15 95 1011.5
20260506115307 0 14 0.0 0.0 0.00 1.57 0.15 95 1011.5
20260506113804 0 14 0.0 0.0 0.00 1.63 0.15 95 1011.5
20260506113304 0 14 0.0 0.0 0.00 1.65 0.15 95 1011.5
20260506112805 0 14 0.0 0.0 0.00 1.65 0.15 95 1011.5
20260506112306 0 14 0.0 0.0 0.00 1.65 0.15 95 1011.5
20260506110804 0 14 0.0 0.0 0.00 1.68 0.15 95 1011.5
20260506110304 0 14 0.0 0.0 0.00 1.68 0.15 95 1011.5
20260506105804 0 14 0.0 0.0 0.00 1.68 0.15 95 1011.5
20260506105305 0 14 0.0 0.0 0.00 1.68 0.15 95 1011.5
20260506104804 0 14 0.0 0.0 0.00 1.68 0.15 95 1011.5
20260506102804 0 14 0.0 0.0 0.00 1.70 0.15 95 1011.5
20260506101305 0 14 0.0 0.0 0.00 1.73 0.15 95 1011.5
20260506095305 0 14 0.0 0.0 0.00 1.78 0.15 95 1011.5
20260506094804 0 14 0.0 0.0 0.03 1.80 0.15 95 1011.5
20260506094304 0 14 0.0 0.0 0.03 1.80 0.15 95 1011.5
20260506093804 0 14 0.0 0.0 0.03 1.80 0.15 95 1011.5
20260506092805 0 14 0.0 0.0 0.03 1.80 0.15 95 1011.5
20260506091805 0 14 0.0 0.0 0.03 1.80 0.15 95 1011.5
20260506091305 0 14 0.0 0.0 0.03 1.80 0.15 95 1011.5
20260506085804 0 14 0.0 0.0 0.03 1.80 0.15 95 1011.5
20260506085306 0 14 0.0 0.0 0.03 1.80 0.15 95 1011.5
20260506082805 0 14 0.0 0.0 0.03 1.83 0.13 95 1011.5
20260506080804 0 14 0.0 0.0 0.08 1.88 0.13 95 1011.5
20260506080304 0 13 0.0 0.0 0.10 1.88 0.13 95 1011.5
20260506073305 0 32 0.0 0.0 0.10 1.85 0.10 95 1008.1
20260506072804 0 34 0.0 0.0 0.10 1.85 0.10 95 1008.1
20260506070804 0 347 0.0 0.0 0.05 1.80 0.05 95 1008.1
20260506070304 0 0 0.0 0.0 0.03 1.78 0.03 95 1008.1
20260506061804 0 358 0.0 0.0 0.05 1.75 0.00 95 1008.1
20260506060817 0 355 0.0 0.0 0.08 1.75 0.00 95 1008.1
20260506051304 0 337 0.0 0.0 0.10 1.68 1.68 95 1008.1
20260506050805 0 337 1.6 3.2 0.10 1.68 1.68 95 1008.1
20260506044804 0 337 0.0 1.6 0.10 1.63 1.63 95 1008.1
20260506044304 0 337 1.6 3.2 0.10 1.63 1.63 95 1008.1
20260506043805 0 337 0.0 3.2 0.10 1.63 1.63 95 1008.1
20260506042804 0 311 1.6 3.2 0.08 1.63 1.60 95 1008.1
20260506041805 0 355 1.6 4.8 0.10 1.65 1.60 95 1008.1
20260506041304 0 6 3.2 4.8 0.08 1.63 1.57 95 1008.1
20260506040804 0 351 4.8 8.0 0.08 1.63 1.57 95 1008.1
20260506033304 0 325 3.2 4.8 0.10 1.63 1.52 95 1008.1
20260506032804 0 339 3.2 8.0 0.10 1.65 1.52 95 1008.1
20260506032305 0 346 3.2 8.0 0.10 1.63 1.50 95 1008.1
20260506030804 0 327 6.4 11.3 0.20 1.68 1.50 95 1008.1
20260506030304 0 309 3.2 8.0 0.25 1.70 1.50 95 1008.1
20260506025306 0 328 4.8 9.7 0.33 1.68 1.47 95 1008.1
20260506024304 0 321 6.4 9.7 0.38 1.65 1.45 95 1008.1
20260506023304 0 343 4.8 9.7 0.38 1.63 1.42 95 1008.1
20260506022805 0 329 4.8 11.3 0.38 1.63 1.42 95 1008.1
20260506022306 0 347 4.8 11.3 0.36 1.60 1.40 95 1008.1
20260506021805 0 341 3.2 4.8 0.33 1.57 1.37 95 1008.1
20260506020304 0 330 3.2 9.7 0.20 1.45 1.24 95 1008.1
20260506015805 0 329 4.8 9.7 0.15 1.40 1.19 95 1008.1
20260506015306 0 335 8.0 12.9 0.13 1.35 1.14 94 1008.1
20260506014304 0 353 6.4 14.5 0.05 1.27 1.07 94 1008.1
20260506012805 0 343 6.4 9.7 0.03 1.24 1.04 94 1008.1
20260506011804 0 346 6.4 14.5 0.03 1.24 1.04 94 1008.1
20260506010804 0 343 6.4 11.3 0.03 1.24 1.04 94 1008.1
20260506010304 0 359 6.4 12.9 0.03 1.24 1.04 94 1008.1
20260506005805 0 351 4.8 11.3 0.03 1.24 1.04 94 1008.1
20260506003805 0 350 4.8 9.7 0.00 1.22 1.02 94 1008.1
20260506003304 0 330 4.8 12.9 0.00 1.22 1.02 94 1008.1
20260506002804 0 327 6.4 11.3 0.00 1.22 1.02 94 1008.1
20260506002306 0 349 8.0 14.5 0.00 1.22 1.02 94 1008.1
20260506001304 0 326 6.4 12.9 0.00 1.22 1.02 94 1008.1
20260506000804 0 350 4.8 11.3 0.00 1.22 1.02 94 1008.1
20260506000304 0 348 9.7 16.1 0.00 1.22 1.02 94 1008.1
20260505235804 0 340 4.8 12.9 0.00 1.22 1.02 94 1008.1
20260505234804 0 329 8.0 12.9 0.03 1.22 1.02 94 1008.1
20260505231804 0 330 8.0 16.1 0.05 1.22 1.02 93 1008.1
20260505231304 0 345 8.0 12.9 0.05 1.22 1.02 93 1008.1
20260505230804 0 335 8.0 22.5 0.08 1.22 1.02 93 1008.1
20260505225804 1 306 16.1 25.7 0.08 1.22 1.02 93 1008.1
20260505225305 1 332 12.9 25.7 0.08 1.22 1.02 93 1008.1
20260505224304 2 332 11.3 19.3 0.08 1.19 0.99 93 1008.1
20260505223804 2 329 9.7 22.5 0.08 1.17 0.97 93 1008.1
20260505221804 2 334 14.5 22.5 0.10 1.17 0.97 93 1008.1
20260505220804 2 335 8.0 19.3 0.13 1.14 0.94 93 1008.1
20260505220304 2 347 12.9 20.9 0.13 1.14 0.94 94 1008.1
20260505214304 2 346 8.0 19.3 0.13 1.12 0.91 93 1008.1
20260505211304 3 355 8.0 14.5 0.10 1.04 0.84 92 1008.1
20260505210804 3 30 9.7 16.1 0.08 1.02 0.81 92 1008.1
20260505210304 3 355 8.0 14.5 0.08 1.02 0.81 92 1008.1
20260505205804 3 29 8.0 11.3 0.05 0.99 0.79 92 1008.1
20260505205305 3 7 9.7 12.9 0.05 0.99 0.79 93 1008.1
20260505204804 3 354 8.0 12.9 0.05 0.99 0.79 92 1008.1
20260505203304 3 22 8.0 19.3 0.05 0.99 0.79 92 1008.1
20260505202804 3 41 9.7 16.1 0.03 0.97 0.76 92 1008.1
20260505202306 3 11 9.7 14.5 0.03 0.97 0.76 92 1008.1
20260505200804 3 354 9.7 16.1 0.00 0.94 0.74 92 1008.1
20260505195305 3 5 11.3 19.3 0.00 0.94 0.74 91 1008.1
20260505194304 3 14 9.7 14.5 0.00 0.94 0.74 91 1008.1
20260505192305 4 21 8.0 12.9 0.00 0.94 0.74 92 1008.1
20260505191304 3 26 4.8 9.7 0.03 0.94 0.74 91 1008.1
20260505190804 3 9 9.7 12.9 0.03 0.94 0.74 92 1008.1
20260505183804 3 46 6.4 12.9 0.05 0.94 0.74 93 1008.1
20260505183304 3 54 8.0 11.3 0.05 0.94 0.74 93 1008.1
20260505182804 3 58 6.4 11.3 0.08 0.94 0.74 94 1008.1
20260505181305 3 50 4.8 16.1 0.05 0.91 0.71 93 1008.1
20260505180804 3 44 3.2 9.7 0.05 0.91 0.71 93 1008.1
20260505175804 3 45 8.0 11.3 0.05 0.91 0.71 93 1008.0
20260505175305 3 30 8.0 12.9 0.05 0.91 0.71 93 1008.0
20260505173804 3 19 4.8 8.0 0.05 0.89 0.69 93 1008.0
20260505171304 3 0 4.8 8.0 0.05 0.86 0.66 94 1008.0
20260505170804 3 322 8.0 9.7 0.05 0.86 0.66 94 1008.0
20260505165306 2 18 4.8 9.7 0.08 0.86 0.66 93 1008.0
20260505164804 2 339 3.2 8.0 0.05 0.84 0.64 94 1008.0